Regional Weather Roundup
Issued by NWS Wilmington, NC

Home | Current Version | Previous Version | Text Only | Print | Product List | Glossary On
Versions: 1 2 3 4 5 6 7 8 9 10 11 12 13 14 15 16 17 18 19 20 21 22 23 24 25 26 27 28 29 30 31 32 33 34 35 36 37 38 39 40 41 42 43 44 45 46 47 48 49 50
410
ASUS42 KILM 250513
RWRILM
RWRILM
REGIONAL HOURLY WEATHER ROUNDUP
NATIONAL WEATHER SERVICE WILMINGTON NC
100 AM EDT SUN SEP 25 2016

NOTE: "FAIR" INDICATES FEW OR NO CLOUDS BELOW 12,000 FEET WITH NO
SIGNIFICANT WEATHER AND/OR OBSTRUCTIONS TO VISIBILITY.

...............WFO WILMINGTON COUNTY WARNING AREA...............

......COASTAL NC AND SC COUNTIES......

CITY           SKY/WX    TMP DP  RH WIND       PRES   REMARKS
WILMINGTON     CLEAR     71  69  93 CALM      30.04S
N MYRTLE BEACH CLEAR     72  71  97 CALM      30.03F FOG
MYRTLE BEACH   CLEAR     73  64  73 CALM      30.06F

......INLAND NC AND SC COUNTIES.......

CITY           SKY/WX    TMP DP  RH WIND       PRES   REMARKS
LUMBERTON      CLEAR     68  68 100 CALM      30.04S
ELIZABETHTOWN  CLEAR     72  72  99 CALM      30.04F
WHITEVILLE     NOT AVBL
FLORENCE       CLEAR     71  68  90 CALM      30.05S
DARLINGTON     CLEAR     70  69  97 CALM      30.05F
KINGSTREE      FAIR      68  66  94 CALM      30.04S FOG
HARTSVILLE     FAIR      68  66  94 CALM      30.04F
BENNETTSVILLE  FOG       70  70 100 CALM      30.04S VSB 1
CONWAY         FAIR      68  68 100 CALM      30.05S
GEORGETOWN     FAIR      68  68 100 CALM      30.04F
MARION         FAIR      68  68 100 CALM      30.05S

....................REST OF NORTH CAROLINA......................

.........EASTERN NC.........

CITY           SKY/WX    TMP DP  RH WIND       PRES   REMARKS
CAPE HATTERAS  PTCLDY    74  68  81 NE9       30.05F
JACKSONVILLE   CLEAR     68  68 100 CALM      30.05S FOG
MOREHEAD CITY  CLEAR     75  72  90 NE5       30.05S
KENANSVILLE    CLEAR     68  66  94 CALM      30.05S FOG
NEW BERN       CLEAR     74  71  91 E8        30.07S
ELIZABETH CITY CLOUDY    72  66  81 NE10      30.09S

.........CENTRAL NC.........

CITY           SKY/WX    TMP DP  RH WIND       PRES   REMARKS
RALEIGH DURHAM PTCLDY    73  70  90 E9        30.08R
ROCKY MOUNT    CLOUDY    73  71  93 NE6       30.08S
ROANOKE RAPIDS NOT AVBL
FAYETTEVILLE   CLEAR     74  68  81 CALM      30.04S
HOFFMAN        CLEAR     70  69  96 N2        30.05S

.........WESTERN NC.........

CITY           SKY/WX    TMP DP  RH WIND       PRES   REMARKS
CHARLOTTE      CLEAR     75  64  68 CALM      30.08S
GREENSBORO     CLEAR     73  67  81 N3        30.08R
HICKORY        NOT AVBL
BOONE          NOT AVBL
ASHEVILLE      NOT AVBL

.....................REST OF SOUTH CAROLINA.....................

.........EASTERN SC.........

CITY           SKY/WX    TMP DP  RH WIND       PRES   REMARKS
CHARLESTON     PTCLDY    74  71  91 CALM      30.03F
BEAUFORT MCAS  CLEAR     75  73  93 CALM      30.03F
HILTON HEAD    CLEAR     75  75 100 CALM      30.04S

.........CENTRAL SC.........

CITY           SKY/WX    TMP DP  RH WIND       PRES   REMARKS
COLUMBIA       CLEAR     72  67  84 CALM      30.03F
ORANGEBURG     NOT AVBL
SUMTER SHAW    CLEAR     71  67  87 CALM      30.02F

.........WESTERN SC.........

CITY           SKY/WX    TMP DP  RH WIND       PRES   REMARKS
GREENVILLE     NOT AVBL
ROCK HILL      CLEAR     69  65  86 CALM      30.08S
ANDERSON       CLEAR     71  62  73 CALM      30.07S
CLEMSON        NOT AVBL
GREENWOOD      CLEAR     68  63  84 CALM      30.08S


...................COASTAL AND OFFSHORE REPORTS..................

................LOCAL PIERS AND NC RESERVE................


STATION/POSITION TIME  SKY/WX   TEMP    WIND        PRES    VSBY
                                AIR SEA DIR/SP/G
                 (UTC)          (F)     (DEG/KT/KT) (MB)    (MI)
JOHNY MRCER PIER 0442            80 83  120/  3/  5 1016.3F
NC RESRV MASNBRO 0345            74     320/  1     1016.0
OCEAN CREST PIER NOT AVBL
SPRINGMAID  PIER 0442            79 83  120/  5/  6 1017.0F


................COASTAL AND OFFSHORE BUOYS................


STATION/POSITION TIME  SKY/WX   TEMP    WIND        PRES    VSBY
                                AIR SEA DIR/SP/G
                 (UTC)          (F)     (DEG/KT/KT) (MB)    (MI)
DIMNDSHOAL 41025 0450            77 85   40/ 16/ 17 1016.9F
WVE H/P(F/S)=  6/11 SWL H/P/D(F/S/D)=  5/130/11

CAPE LOOKOUT     0500            78      60/ 14/ 15 1017.3S
ONSLOW BAY 41036 NOT AVBL
ONSLOW BAY 41064 0408            81 82   80/  8/ 12 1017.1F
ONSLOW BAY 41159 0455               82                N/A
WVE H/P(F/S)=  3/11 SWL H/P/D(F/S/D)=  2/120/11

5SE WRITBC 41038 NOT AVBL
MASNBO INL 41110 0459               81                N/A
WVE H/P(F/S)=  2/11 SWL H/P/D(F/S/D)=  2/120/11

WILM HARBR 41108 0456               81                N/A
WVE H/P(F/S)=  3/11 SWL H/P/D(F/S/D)=  2/140/11

27SE WRITB 41037 0408            82 81   80/  6/  8 1017.3F
FRYING PAN 41013 0450            81 82   60/  8/ 12 1016.5F
WVE H/P(F/S)=  3/11 SWL H/P/D(F/S/D)=  3/110/11

SUNST NRSH 41024 0408            80 81  160/  4/  6 1017.1F
CAPRS NRSH 41029 0408            80 81   90/  4/  8 1017.1F
EDISTO     41004 0450            81 82   60/  8/ 10 1016.1F
WVE H/P(F/S)=  4/11 SWL H/P/D(F/S/D)=  3/100/11



..........OFFSHORE BUOYS BEYOND 100 NM OFFSHORE...........
.....IN A TRIANGLE---HAT TO BERMUDA TO BAHAMAS TO HAT.....


STATION/POSITION TIME  SKY/WX   TEMP    WIND        PRES    VSBY
                                AIR SEA DIR/SP/G
                 (UTC)          (F)     (DEG/KT/KT) (MB)    (MI)
150E HAT   41001 NOT AVBL
W BERMUDA  41048 0450            82 84  340/ 10/ 12 1014.0R
WVE H/P(F/S)=  4/ 9 SWL H/P/D(F/S/D)=  3/110/ 9

ATLANTIC S 41049 0450            82 83  300/  8/ 10 1014.5F
WVE H/P(F/S)=  7/ 9 SWL H/P/D(F/S/D)=  7/350/ 9

E BAHAMAS  41046 0450            84 87   80/  4/  6 1015.1F
WVE H/P(F/S)=  5/ 9 SWL H/P/D(F/S/D)=  5/ 40/ 9

NE BAHAMAS 41047 0450            83 86  290/  2/  4 1015.4F
WVE H/P(F/S)=  5/ 9 SWL H/P/D(F/S/D)=  5/ 90/ 9

120E CANVRL41010 NOT AVBL

END




USA.gov is the U.S. government's official web portal to all federal, state and local government web resources and services.